Regional Weather Roundup
Issued by NWS Jackson, KY

Home | Current Version | Previous Version | Text Only | Print | Product List | Glossary Off
Versions: 1 2 3 4 5 6 7 8 9 10 11 12 13 14 15 16 17 18 19 20 21 22 23 24 25 26 27 28

000
ASUS43 KJKL 031510
RWRJKL

EAST KENTUCKY HOURLY WEATHER ROUNDUP
NATIONAL WEATHER SERVICE JACKSON KY
1100 AM EDT TUE MAY 03 2016

NOTE: "FAIR" INDICATES FEW OR NO CLOUDS BELOW 12,000 FEET WITH
NO SIGNIFICANT WEATHER AND/OR OBSTRUCTIONS TO VISIBILITY.

* THESE REPORTS ARE NOT UNDER NWS QUALITY CONTROL AND MAY NOT
  REPORT WEATHER SUCH AS PRECIPITATION AND FOG.

KYZ079-080-083-085-087-088-110-112-115-119-120-031600
...EASTERN KENTUCKY...

CITY           SKY/WX    TMP DP  RH WIND       PRES   REMARKS
JACKSON        CLOUDY    58  53  84 VRB3      29.91S
LONDON         CLOUDY    59  51  75 W9        29.93S
SOMERSET*      CLOUDY    57  46  67 N6        29.96S
MONTICELLO*    PTSUNNY   61  51  70 NW12      29.97R
WILLIAMSBURG*  PTSUNNY   57  55  94 CALM      29.94S
MIDDLESBORO*   CLOUDY    61  55  81 CALM      29.93R
HARLAN APT*    CLOUDY    57  52  82 CALM      29.92S
HAZARD APT*    CLOUDY    59  57  94 W6        29.92
BLACK MTN*       N/A     50  50 100 VRB1        N/A
PIKE CO APT*   CLOUDY    56  56 100 W5        29.90R
BIG SANDY APT* CLOUDY    58  56  95 W5        29.90R
MOREHEAD APT*  CLOUDY    57  54  88 W5        29.92S
$$

KYZ035-036-041-042-044-050-067-078-099-031600
...CENTRAL KENTUCKY...

CITY           SKY/WX    TMP DP  RH WIND       PRES   REMARKS
MT STERLING*   CLOUDY    57  52  82 W5        29.93S
DANVILLE*      PTSUNNY   55  46  71 N7        29.95S
RICHMOND*      CLOUDY    55  50  82 W8        29.93S
LEXINGTON      CLOUDY    57  49  74 W9        29.93S
FRANKFORT      PTSUNNY   60  48  64 W9        29.92S
LOUISVILLE     PTSUNNY   61  47  59 CALM      29.95S
LEBANON*       CLOUDY    57  48  72 W8        29.96R
BOWLING GREEN  PTSUNNY   61  50  67 NW9       29.98S
$$

KYZ091>093-OHZ055-061-077-WVZ005-015-034-035-042-031600
...SOUTHERN OHIO/WEST VIRGINIA...

CITY           SKY/WX    TMP DP  RH WIND       PRES   REMARKS
COVINGTON      CLOUDY    56  51  84 NW5       29.91S
COLUMBUS       CLOUDY    53  44  71 NE7       29.90S
DAYTON         CLOUDY    53  45  74 N8        29.93S
WILMINGTON     CLOUDY    52  47  83 N8        29.90S
HUNTINGTON     CLOUDY    59  54  83 NW5       29.88S
CHARLESTON     CLOUDY    62  55  77 NW3       29.86S
PINEVILLE*     RAIN      60  55  86 MISG      29.92R
BECKLEY        LGT RAIN  59  54  83 W6        29.87S
$$

VAZ002-007-008-TNZ017-027-036-066-071-031600
...SOUTHWEST VIRGINIA/EAST TENNESSEE...

CITY           SKY/WX    TMP DP  RH WIND       PRES   REMARKS
WISE*          CLOUDY    57  55  94 NW6       29.92S
BRISTOL        PTSUNNY   64  57  78 W8        29.89S
MORRISTOWN*    CLOUDY    61  59  94 N6        29.90S
SEVIERVILLE*   CLOUDY    59  57  94 NW6       29.92R
KNOXVILLE      PTSUNNY   63  57  81 CALM      29.91S
OAK RIDGE      CLOUDY    67  56  67 CALM      29.92S
CROSSVILLE     MOSUNNY   66  51  58 NW7       29.96R
NASHVILLE      PTSUNNY   60  48  64 NW6       29.99R
$$

...KEY TO REMARKS...
VSB - VISIBILITY IN MILES
WCI - WIND CHILL INDEX
HX  - HEAT INDEX

$$




USA.gov is the U.S. government's official web portal to all federal, state and local government web resources and services.